Volver al catálogo

SL-14 DEB

ActivoPO
NORAD 47081·DEBRIS·🇷🇺 Russia

Lanzado Aug 15, 1991 desde Plesetsk Cosmodrome

Loading…

Próximos Pases (próximas 24 horas)

TLE

ActualizadoSource: Space-Track

Época: Sep 14, 2026, 07:12 UTC

1 47081U 91056DF  26257.30068978  .00001076  00000-0  17200-2 0  9990
2 47081  82.5852   6.8770 0103911 274.7664  84.1615 13.46191020287066

Sigue SL-14 DEB en tiempo real con AllMySat

Download on the App Store